Location: *
(44.1392°N, 4.8079°E)
Time: 08:32:33
(UTC+00:00)

ADEOS II - Pass Details

Date: 21 June 2021
Orbit: 799 x 800 km, 98.6° (Epoch: 02 August)

Event Time Altitude Azimuth Distance (km) Brightness Sun altitude
Rises 02:39:07 0° 7° (N) 3,321 6.3 -11.3°
Reaches altitude 10° 02:41:34 10° 360° (N) 2,386 5.3 -11.0°
Maximum altitude 02:46:27 40° 292° (WNW) 1,163 2.8 -10.4°
Enters shadow 02:50:49 13° 226° (SW) 2,188 3.7 -9.9°
